Flag for Canada Weather past 2 weeks in Igloolik, Nunavut Territory, Canada

Now
41 °F

Fog.


Feels Like: 32 °F
Forecast: 51 / 62 °F
Wind: 20 mph from South

Location: Hall Beach

Current Time: Jul 31, 2014 at 11:53:50 PM

Latest Report: Jul 31, 2014 at 11:00 PM


Visibility: 1 mi

Pressure: 30.02 "Hg

Humidity: 100%

Dew point: 41 °F

Location of IgloolikLocation

Historic Weather in Igloolik — Graph

°F

Igloolik temperature yesterday

Maximum temperature yesterday: 57 °F (at 11:00 AM)
Minimum temperature yesterday: 37 °F (at 12:00 AM)
Average temperature yesterday: 45 °F

Past Weeks' High & Low Weather Summary

 TemperatureHumidityPressure
High61 °F (Jul 25, 10:00 AM)100% (Jul 17, 12:00 AM)30.15 "Hg (Jul 17, 12:00 AM)
Low36 °F (Jul 17, 4:00 AM)59% (Jul 25, 11:00 AM)29.26 "Hg (Jul 18, 1:58 AM)
Average46 °F87%29.81 "Hg
* Reported Jul 16 11:00 PM — Jul 31 11:00 PM, Igloolik, Weather by CustomWeather, © 2014

Note: Actual official high and low records may vary slightly from our data, if they occured in-between our weather recording intervals... More about our weather records

Advertising

Igloolik weather history for previous 24 hours

 ConditionsComfort  
Time TempWeatherWind HumidityBarometerVisibility
11:00 PM
Jul 31
41 °FFog.20 mph100%30.02 "Hg1 mi
10:04 PM41 °FFog.18 mph100%30.03 "Hg2 mi
10:00 PM41 °FFog.17 mph100%30.03 "Hg3 mi
9:54 PM41 °FFog.18 mph100%30.03 "Hg5 mi
9:00 PM43 °FLow clouds.16 mph93%30.04 "Hg9 mi
8:00 PM41 °FFog.15 mph100%30.05 "Hg0 mi
7:00 PM43 °FFog.14 mph93%30.07 "Hg0 mi
6:00 PM45 °FFog.15 mph93%30.07 "Hg1 mi
5:47 PM45 °FFog.14 mph93%30.08 "Hg1 mi
5:00 PM45 °FFog.13 mph93%30.08 "Hg1 mi
4:00 PM46 °FFog.14 mph93%30.09 "Hg4 mi
3:00 PM46 °FDrizzle. Fog.12 mph93%30.11 "Hg10 mi
2:00 PM46 °FFog.10 mph93%30.12 "Hg5 mi
1:47 PM46 °FFog.9 mph93%30.12 "Hg1 mi
1:00 PM50 °FFog.12 mph94%30.12 "Hg3 mi
12:00 PM50 °FDrizzle. Fog.10 mph94%30.12 "Hg12 mi
11:45 AM50 °FDrizzle. Fog.8 mph94%30.12 "Hg10 mi
11:00 AM52 °FFog.12 mph88%30.13 "Hg15 mi
10:00 AM52 °FMore clouds than sun.9 mph94%30.14 "Hg15 mi
9:45 AM52 °FMore clouds than sun.9 mph94%30.14 "Hg15 mi
9:00 AM52 °FOvercast.9 mph94%30.14 "Hg15 mi
8:00 AM52 °FOvercast.6 mph88%30.14 "Hg15 mi
7:00 AM50 °FOvercast.5 mph94%30.14 "Hg9 mi
6:00 AM48 °FOvercast.2 mph100%30.15 "Hg9 mi
5:00 AM48 °FOvercast.2 mph94%30.15 "Hg9 mi
4:00 AM48 °FOvercast.3 mph100%30.15 "Hg9 mi
3:00 AM48 °FOvercast.No wind94%30.15 "Hg9 mi
2:00 AM48 °FOvercast.No wind94%30.15 "Hg9 mi
1:00 AM46 °FOvercast.No wind100%30.14 "Hg9 mi
12:00 AM48 °FOvercast.No wind94%30.15 "Hg9 mi
11:00 PM
Jul 30
46 °FPassing clouds.3 mph93%30.14 "Hg9 mi
Weather by CustomWeather, © 2014

See weather overviewHow to use our weather pages